blitz-cinestar.hr alexa rank chart, blitz-cinestar.hr alexa rank daily changes

blitz-cinestar.hr alexa rank chart, blitz-cinestar.hr alexa rank daily changes

blitz-cinestar.hr
Actual rank:
88 203

RANK HISTORY

Date Rank Diff
2017/09/24 88 203 -406
2017/09/23 88 609 +64
2017/09/22 88 545 +521
2017/09/20 88 024 +394
2017/09/19 87 630 -1 079
2017/09/18 88 709 -3 381
2017/09/17 92 090 +631
2017/09/16 91 459 -191
2017/09/15 91 650 -957
2017/09/14 92 607 -103
2017/09/13 92 710 -569
2017/09/12 93 279 -1 201
2017/09/11 94 480 +1 657
2017/09/10 92 823 +2 099
2017/09/09 90 724 +4 204
2017/09/08 86 520 +1 813
2017/09/07 84 707 +1 759
2017/09/06 82 948 +1 391
2017/09/05 81 557 +735
2017/09/04 80 822 -274
2017/09/03 81 096 +1 465
2017/09/02 79 631 +1 343
2017/09/01 78 288 -210
2017/08/31 78 498 +778
2017/08/30 77 720 +3
2017/08/29 77 717 -709
2017/08/28 78 426 +1 076
2017/08/27 77 350 +515
2017/08/26 76 835 +1 062
2017/08/25 75 773 +969
2017/08/24 74 804 +428
2017/08/23 74 376 +858
2017/08/22 73 518 +48
2017/08/21 73 470 +283
2017/08/20 73 187 +866
2017/08/19 72 321 +555
2017/08/18 71 766 +1 097
2017/08/17 70 669 +80
2017/08/16 70 589 +595
2017/08/15 69 994 +292
2017/08/14 69 702 -443
2017/08/13 70 145 +1 065
2017/08/12 69 080 +31
2017/08/11 69 049 -370
2017/08/10 69 419 -937
2017/08/09 70 356 -2 075
2017/08/08 72 431 -1 577
2017/08/07 74 008 -1 032
2017/08/06 75 040 -612
2017/08/05 75 652 +169
2017/08/04 75 483 +306
2017/08/03 75 177 +218
2017/08/02 74 959 -49
2017/08/01 75 008 +266
2017/07/31 74 742 +336
2017/07/30 74 406 +964
2017/07/29 73 442 +557
2017/07/28 72 885 -449
2017/07/27 73 334 +1 645
2017/07/26 71 689

WIDGET FOR YOUR SITE

DOMAINS WITH THE NEAREST RANK

Domain Rank
invertironline.com 88 198
ccna7.com 88 199
eliademy.com 88 200
svenskfotboll.se 88 201
fxcm-chinese.com 88 202
blitz-cinestar.hr 88 203
probusiness.io 88 204
trackyourparcel.eu 88 205
packageradar.com 88 206
lovekrakow.pl 88 207
qicaispace.com 88 208

DOMAINS WITH THE NEAREST RANK BY TLD .hr

Domain Rank
geek.hr 82 689
nn.hr 83 067
jeftinije.hr 85 207
mojkvart.hr 85 581
lidl.hr 87 065
blitz-cinestar.hr 88 203
glas-slavonije.hr 89 482
hcl.hr 90 164
uniri.hr 96 673